Home   Weather   Germantown   Past weeks

Flag for USA Past Weather in Germantown, Maryland, USA — Yesterday and Last 2 Weeks

Now
63 °F

Passing clouds.


Feels Like: 63 °F
Forecast: 52 / 71 °F
Wind: No wind

Location: Leesburg / Godfrey

Current Time: Sep 24, 2016 at 11:57:13 PM

Latest Report: Sep 24, 2016 at 11:15 PM


Visibility: 10 mi

Pressure: 30.18 "Hg

Humidity: 94%

Dew Point: 61 °F

Location of GermantownLocation

Past Weather in Germantown — Graph

°F

Germantown Temperature Yesterday

Maximum temperature yesterday: 90 °F (at 2:55 PM)
Minimum temperature yesterday: 59 °F (at 4:55 AM)
Average temperature yesterday: 74 °F

High & Low Weather Summary for the Past Weeks

 TemperatureHumidityPressure
High99 °F (Sep 10, 3:55 PM)100% (Sep 10, 3:55 AM)30.31 "Hg (Sep 10, 3:55 AM)
Low59 °F (Sep 23, 4:55 AM)30% (Sep 14, 3:35 PM)29.90 "Hg (Sep 10, 6:15 PM)
Average75 °F73%30.12 "Hg
* Reported Sep 9 10:15 PM — Sep 24 10:15 PM, Germantown, Weather by CustomWeather, © 2016

Note: Actual official high and low records may vary slightly from our data, if they occured in-between our weather recording intervals... More about our weather records

Advertising

Germantown Weather History for the Previous 24 Hours

Scroll right to see more
 ConditionsComfort  
Time TempWeatherWind HumidityBarometerVisibility
10:15 PM
Sat, Sep 24
63 °FPassing clouds.No wind100%30.16 "Hg10 mi
9:55 PM64 °FPassing clouds.No wind94%30.16 "Hg10 mi
9:15 PM68 °FPassing clouds.No wind83%30.15 "Hg10 mi
8:55 PM66 °FPassing clouds.No wind88%30.14 "Hg10 mi
8:15 PM68 °FClear.No wind83%30.13 "Hg10 mi
7:55 PM70 °FClear.3 mph78%30.12 "Hg10 mi
7:15 PM70 °FClear.7 mph83%30.12 "Hg10 mi
6:55 PM72 °FSunny.7 mph73%30.11 "Hg10 mi
6:35 PM73 °FSunny.3 mph65%30.10 "Hg10 mi
6:15 PM73 °FSunny.6 mph65%30.10 "Hg10 mi
5:55 PM73 °FSunny.5 mph65%30.09 "Hg10 mi
5:35 PM73 °FScattered clouds.5 mph65%30.09 "Hg10 mi
5:15 PM73 °FPartly sunny.7 mph65%30.09 "Hg10 mi
4:55 PM75 °FScattered clouds.7 mph61%30.09 "Hg10 mi
4:15 PM77 °FScattered clouds.8 mph61%30.09 "Hg10 mi
3:55 PM75 °FBroken clouds.6 mph65%30.09 "Hg10 mi
3:35 PM73 °FCloudy.7 mph69%30.09 "Hg10 mi
3:15 PM75 °FBroken clouds.9 mph65%30.10 "Hg10 mi
2:55 PM77 °FScattered clouds.8 mph61%30.10 "Hg10 mi
2:35 PM73 °FMore clouds than sun.8 mph69%30.11 "Hg10 mi
2:15 PM73 °FMostly cloudy.7 mph69%30.11 "Hg10 mi
1:55 PM73 °FOvercast.8 mph69%30.11 "Hg10 mi
1:15 PM75 °FOvercast.7 mph69%30.12 "Hg10 mi
12:55 PM73 °FOvercast.9 mph74%30.12 "Hg10 mi
12:35 PM73 °FOvercast.9 mph74%30.13 "Hg10 mi
12:15 PM73 °FOvercast.7 mph74%30.13 "Hg10 mi
11:55 AM73 °FOvercast.9 mph74%30.13 "Hg10 mi
11:35 AM73 °FOvercast.7 mph74%30.12 "Hg10 mi
11:15 AM73 °FOvercast.8 mph74%30.13 "Hg10 mi
10:55 AM73 °FOvercast.7 mph78%30.12 "Hg10 mi
10:15 AM73 °FPartly sunny.13 mph78%30.12 "Hg10 mi
9:55 AM73 °FScattered clouds.12 mph78%30.11 "Hg10 mi
9:35 AM73 °FSunny.9 mph83%30.10 "Hg10 mi
9:15 AM73 °FSunny.9 mph83%30.10 "Hg10 mi
8:55 AM72 °FSunny.7 mph88%30.09 "Hg10 mi
8:15 AM72 °FSunny.7 mph83%30.08 "Hg10 mi
7:55 AM70 °FSunny.6 mph88%30.08 "Hg10 mi
7:15 AM70 °FSunny.7 mph88%30.06 "Hg10 mi
6:55 AM72 °FClear.8 mph78%30.05 "Hg10 mi
6:15 AM72 °FPassing clouds.8 mph78%30.04 "Hg10 mi
5:55 AM70 °FPassing clouds.9 mph83%30.03 "Hg10 mi
5:15 AM70 °FOvercast.10 mph83%30.03 "Hg10 mi
4:55 AM70 °FOvercast.6 mph88%30.02 "Hg10 mi
4:15 AM66 °FClear.No wind94%30.02 "Hg10 mi
3:55 AM68 °FClear.No wind94%30.02 "Hg10 mi
3:15 AM70 °FClear.No wind88%30.01 "Hg10 mi
2:55 AM70 °FClear.No wind88%30.01 "Hg10 mi
2:35 AM68 °FClear.No wind94%30.01 "Hg10 mi
2:15 AM70 °FClear.No wind88%30.01 "Hg10 mi
1:55 AM68 °FClear.No wind88%30.01 "Hg10 mi
1:15 AM72 °FClear.No wind83%30.01 "Hg10 mi
12:55 AM72 °FClear.No wind83%30.01 "Hg10 mi
12:15 AM72 °FClear.3 mph83%30.02 "Hg10 mi
11:55 PM
Fri, Sep 23
72 °FClear.5 mph83%30.02 "Hg10 mi
11:15 PM72 °FClear.5 mph83%30.02 "Hg10 mi
Weather by CustomWeather, © 2016

See weather overviewHow to use our weather pages